When you browse on this site, cookies collect data to enhance your experience and personalize the content and advertising you see.
Visit our Privacy Policy to learn more. By continuing to use the site, you agree to this use of cookies and data.
  • In Hungary
  • List of Countries
  • For 7 days
  • Water Temperature
  • Weather Map
  • News
  • Weather Widgets
  • user-avatar
    Login

    Hourly Weather Otrar

    Today, 31 March, Tuesday

    Time Temperature Precipitation Wind Pressure Humidity
    00:00 +12°C° 0 mm 8 mps 737 mmHg 32%
    01:00 +12°C° 0 mm 8 mps 737 mmHg 34%
    02:00 +11°C° 0 mm 7 mps 736 mmHg 36%
    03:00 +11°C° 0 mm 7 mps 736 mmHg 37%
    04:00 +11°C° 0 mm 7 mps 736 mmHg 37%
    05:00 +10°C° 0 mm 7 mps 736 mmHg 37%
    06:00 +11°C° 0 mm 7 mps 736 mmHg 36%
    07:00 +12°C° 0 mm 7 mps 736 mmHg 36%
    08:00 +14°C° 0 mm 7 mps 736 mmHg 35%
    09:00 +15°C° 0 mm 6 mps 736 mmHg 32%
    10:00 +18°C° 0 mm 4 mps 737 mmHg 29%
    11:00 +20°C° 0 mm 3 mps 737 mmHg 27%
    12:00 +21°C° 0 mm 3 mps 737 mmHg 26%
    13:00 +22°C° 0 mm 3 mps 737 mmHg 24%
    14:00 +24°C° 0 mm 2 mps 737 mmHg 23%
    15:00 +24°C° 0.1 mm 3 mps 737 mmHg 29%
    16:00 +23°C° 0.1 mm 5 mps 737 mmHg 34%
    17:00 +22°C° 0 mm 7 mps 737 mmHg 43%
    18:00 +20°C° 0.9 mm 6 mps 737 mmHg 55%
    19:00 +17°C° 0.9 mm 6 mps 738 mmHg 67%
    20:00 +15°C° 0.9 mm 6 mps 738 mmHg 78%
    21:00 +15°C° 0.1 mm 5 mps 738 mmHg 78%
    22:00 +15°C° 0.1 mm 5 mps 738 mmHg 78%
    23:00 +15°C° 0.1 mm 4 mps 738 mmHg 78%

    Tomorrow, 1 April, Wednesday

    Time Temperature Precipitation Wind Pressure Humidity
    00:00 +15°C° 0 mm 4 mps 738 mmHg 79%
    01:00 +15°C° 0 mm 4 mps 738 mmHg 79%
    02:00 +14°C° 0 mm 4 mps 738 mmHg 80%
    03:00 +14°C° 0.1 mm 3 mps 738 mmHg 81%
    04:00 +14°C° 0.1 mm 3 mps 739 mmHg 82%
    05:00 +13°C° 0.1 mm 3 mps 739 mmHg 83%
    06:00 +14°C° 0.3 mm 4 mps 739 mmHg 78%
    07:00 +15°C° 0.3 mm 5 mps 739 mmHg 73%
    08:00 +16°C° 0.3 mm 5 mps 740 mmHg 68%
    09:00 +17°C° 0 mm 6 mps 740 mmHg 61%
    10:00 +18°C° 0 mm 7 mps 741 mmHg 55%
    11:00 +21°C° 0 mm 8 mps 742 mmHg 49%
    12:00 +20°C° 0 mm 8 mps 742 mmHg 47%
    13:00 +20°C° 0 mm 8 mps 742 mmHg 46%
    14:00 +20°C° 0 mm 8 mps 742 mmHg 44%
    15:00 +20°C° 0 mm 7 mps 742 mmHg 45%
    16:00 +19°C° 0 mm 6 mps 743 mmHg 45%
    17:00 +19°C° 0 mm 5 mps 743 mmHg 46%
    18:00 +17°C° 0.2 mm 5 mps 744 mmHg 49%
    19:00 +17°C° 0.2 mm 5 mps 744 mmHg 52%
    20:00 +16°C° 0.2 mm 5 mps 744 mmHg 55%
    21:00 +15°C° 0 mm 5 mps 745 mmHg 57%
    22:00 +15°C° 0 mm 5 mps 745 mmHg 58%
    23:00 +14°C° 0 mm 5 mps 745 mmHg 60%

    Day after tomorrow, 2 April, Thursday

    Time Temperature Precipitation Wind Pressure Humidity
    00:00 +14°C° 0 mm 5 mps 745 mmHg 63%
    01:00 +13°C° 0 mm 5 mps 745 mmHg 66%
    02:00 +13°C° 0 mm 4 mps 745 mmHg 69%
    03:00 +12°C° 0 mm 4 mps 746 mmHg 69%
    04:00 +12°C° 0 mm 4 mps 746 mmHg 70%
    05:00 +12°C° 0 mm 4 mps 746 mmHg 70%
    06:00 +12°C° 0 mm 4 mps 746 mmHg 67%
    07:00 +13°C° 0 mm 4 mps 747 mmHg 64%
    08:00 +14°C° 0 mm 5 mps 747 mmHg 61%
    09:00 +15°C° 0 mm 5 mps 747 mmHg 54%
    10:00 +17°C° 0 mm 5 mps 747 mmHg 46%
    11:00 +19°C° 0 mm 4 mps 747 mmHg 39%
    12:00 +20°C° 0 mm 4 mps 747 mmHg 36%
    13:00 +21°C° 0 mm 4 mps 746 mmHg 32%
    14:00 +21°C° 0 mm 3 mps 746 mmHg 28%
    15:00 +22°C° 0 mm 3 mps 746 mmHg 27%
    16:00 +23°C° 0 mm 2 mps 746 mmHg 26%
    17:00 +23°C° 0 mm 1 mps 745 mmHg 25%
    18:00 +22°C° 0 mm 1 mps 746 mmHg 28%
    19:00 +20°C° 0 mm 1 mps 746 mmHg 31%
    20:00 +19°C° 0 mm 1 mps 746 mmHg 34%
    21:00 +18°C° 0 mm 2 mps 746 mmHg 35%
    22:00 +17°C° 0 mm 2 mps 746 mmHg 36%
    23:00 +17°C° 0 mm 3 mps 746 mmHg 37%

    3 April, Friday

    Time Temperature Precipitation Wind Pressure Humidity
    00:00 +16°C° 0 mm 3 mps 745 mmHg 41%
    01:00 +16°C° 0 mm 2 mps 745 mmHg 45%
    02:00 +15°C° 0 mm 2 mps 745 mmHg 48%
    03:00 +15°C° 0 mm 2 mps 745 mmHg 50%
    04:00 +14°C° 0 mm 2 mps 745 mmHg 52%
    05:00 +14°C° 0 mm 2 mps 744 mmHg 54%
    06:00 +15°C° 0 mm 2 mps 745 mmHg 51%
    07:00 +16°C° 0 mm 3 mps 745 mmHg 49%
    08:00 +16°C° 0 mm 3 mps 745 mmHg 47%
    09:00 +18°C° 0 mm 3 mps 745 mmHg 40%
    10:00 +20°C° 0 mm 3 mps 744 mmHg 34%
    11:00 +22°C° 0 mm 3 mps 744 mmHg 28%
    12:00 +24°C° 0 mm 3 mps 744 mmHg 26%
    13:00 +25°C° 0 mm 2 mps 744 mmHg 23%
    14:00 +27°C° 0 mm 2 mps 744 mmHg 21%
    15:00 +26°C° 0 mm 2 mps 743 mmHg 22%
    16:00 +26°C° 0 mm 2 mps 743 mmHg 23%
    17:00 +26°C° 0 mm 2 mps 743 mmHg 23%
    18:00 +24°C° 0 mm 2 mps 743 mmHg 25%
    19:00 +23°C° 0 mm 2 mps 743 mmHg 27%
    20:00 +21°C° 0 mm 2 mps 743 mmHg 29%
    21:00 +20°C° 0 mm 3 mps 743 mmHg 31%
    22:00 +19°C° 0 mm 3 mps 743 mmHg 33%
    23:00 +19°C° 0 mm 4 mps 743 mmHg 35%

    4 April, Saturday

    Time Temperature Precipitation Wind Pressure Humidity
    00:00 +18°C° 0 mm 4 mps 743 mmHg 36%
    01:00 +18°C° 0 mm 4 mps 743 mmHg 37%
    02:00 +17°C° 0 mm 3 mps 742 mmHg 38%
    03:00 +17°C° 0 mm 3 mps 742 mmHg 39%
    04:00 +16°C° 0 mm 3 mps 742 mmHg 40%
    05:00 +16°C° 0 mm 2 mps 742 mmHg 41%
    06:00 +17°C° 0 mm 2 mps 743 mmHg 38%
    07:00 +18°C° 0 mm 2 mps 743 mmHg 36%
    08:00 +19°C° 0 mm 2 mps 743 mmHg 34%
    09:00 +22°C° 0 mm 1 mps 743 mmHg 30%
    10:00 +24°C° 0 mm 1 mps 743 mmHg 26%
    11:00 +26°C° 0 mm 1 mps 743 mmHg 22%
    12:00 +27°C° 0 mm 1 mps 743 mmHg 20%
    13:00 +28°C° 0 mm 2 mps 743 mmHg 18%
    14:00 +29°C° 0 mm 2 mps 742 mmHg 17%
    15:00 +29°C° 0 mm 2 mps 742 mmHg 17%
    16:00 +29°C° 0 mm 2 mps 742 mmHg 17%
    17:00 +29°C° 0 mm 2 mps 742 mmHg 17%
    18:00 +28°C° 0 mm 2 mps 742 mmHg 20%
    19:00 +26°C° 0 mm 1 mps 742 mmHg 23%
    20:00 +25°C° 0 mm 1 mps 742 mmHg 26%
    21:00 +24°C° 0 mm 2 mps 742 mmHg 28%
    22:00 +24°C° 0 mm 2 mps 742 mmHg 31%
    23:00 +22°C° 0 mm 3 mps 742 mmHg 33%

    5 April, Sunday

    Time Temperature Precipitation Wind Pressure Humidity
    00:00 +22°C° 0 mm 3 mps 742 mmHg 35%
    01:00 +21°C° 0 mm 3 mps 742 mmHg 37%
    02:00 +20°C° 0 mm 4 mps 741 mmHg 39%
    03:00 +20°C° 0 mm 3 mps 741 mmHg 40%
    04:00 +20°C° 0 mm 3 mps 742 mmHg 40%
    05:00 +19°C° 0 mm 3 mps 742 mmHg 41%
    06:00 +20°C° 0 mm 3 mps 742 mmHg 40%
    07:00 +20°C° 0 mm 3 mps 742 mmHg 40%
    08:00 +21°C° 0 mm 3 mps 743 mmHg 39%
    09:00 +22°C° 0 mm 3 mps 743 mmHg 36%
    10:00 +25°C° 0 mm 3 mps 743 mmHg 32%
    11:00 +26°C° 0 mm 2 mps 743 mmHg 29%
    12:00 +26°C° 0 mm 4 mps 742 mmHg 30%
    13:00 +26°C° 0 mm 6 mps 742 mmHg 31%
    14:00 +26°C° 0 mm 7 mps 742 mmHg 33%
    15:00 +26°C° 0 mm 6 mps 742 mmHg 34%
    16:00 +26°C° 0 mm 4 mps 742 mmHg 36%
    17:00 +25°C° 0 mm 3 mps 742 mmHg 37%
    18:00 +24°C° 0.3 mm 3 mps 742 mmHg 45%
    19:00 +21°C° 0.3 mm 3 mps 742 mmHg 52%
    20:00 +19°C° 0.3 mm 4 mps 742 mmHg 60%
    21:00 +18°C° 0.1 mm 4 mps 743 mmHg 61%
    22:00 +16°C° 0.1 mm 5 mps 743 mmHg 62%
    23:00 +16°C° 0.1 mm 5 mps 744 mmHg 63%
    Show more